Printer-friendly version

IAU Minor Planet Center

Minor Planet Center

MPEC 2005-M21 : COMET C/2005 G1 (LINEAR)

The following Minor Planet Electronic Circular may be linked-to from your own Web pages, but must not otherwise be redistributed electronically.


Read MPEC 2005-M20 Read MPEC 2005-M22


M.P.E.C. 2005-M21                                Issued 2005 June 20, 01:34 UT

     The Minor Planet Electronic Circulars contain information on unusual
         minor planets and routine data on comets.  They are published
   on behalf of Commission 20 of the International Astronomical Union by the
          Minor Planet Center, Smithsonian Astrophysical Observatory,
                          Cambridge, MA 02138, U.S.A.

                  Supported in part by the Brinson Foundation
             Prepared using the Tamkin Foundation Computer Network

                              MPC@CFA.HARVARD.EDU
          URL http://cfa-www.harvard.edu/iau/mpc.html  ISSN 1523-6714

                           COMET C/2005 G1 (LINEAR)

Observations:
    CK05G010  C2005 05 28.93655 17 02 13.31 +58 45 44.2          18.9 N EM021130
    CK05G010  C2005 05 28.94461 17 02 12.29 +58 45 48.1          19.0 N EM021130
    CK05G010  C2005 06 13.25862 16 29 48.13 +59 59 33.7          18.5 T EM021704
    CK05G010  C2005 06 13.26832 16 29 46.86 +59 59 35.2          18.7 T EM021704
    CK05G010  C2005 06 13.27805 16 29 45.58 +59 59 37.0          18.8 T EM021704
    CK05G010  C2005 06 13.28793 16 29 44.34 +59 59 38.6          18.5 T EM021704
    CK05G010  C2005 06 13.29783 16 29 42.95 +59 59 39.9          18.7 T EM021704

Observer details:
130 Lumezzane.  Observers C. Cremaschini, S. Foglia, W. Marinello, M. Micheli,
    G. Pizzetti.  Measurers W. Marinello, M. Micheli, G. Pizzetti.  0.40-m
    f/4.5 reflector + CCD.
704 Lincoln Laboratory ETS, New Mexico.  Observers M. Blythe, F. Shelly,
    M. Bezpalko, R. Huber, L. Manguso, D. Torres, R. Kracke, M. McCleary,
    H. Stange, A. Milner.  Measurers J. Stuart, R. Sayer, J. Evans, J. Kommers.
    1.0-m f/2.15 reflector + CCD.

Orbital elements:
    C/2005 G1 (LINEAR)
Epoch 2006 Mar. 6.0 TT = JDT 2453800.5
T 2006 Feb. 27.31975 TT                                 MPC
q   4.9609345            (2000.0)            P               Q
z  -0.0000044      Peri.  113.81756     -0.45068937     -0.34076635
 +/-0.0000433      Node   299.58704     -0.15398679     +0.94009453
e   1.0000220      Incl.  108.41431     +0.87929925     -0.01002802
Residuals in seconds of arc
050322 704  0.1+  0.5+    050405 372  0.4-  0.3+    050503 349  0.1+  0.3+
050322 704  0.2-  0.8-    050405 104  0.4+  0.3-    050503 349  0.6+  0.4-
050322 704  0.6-  0.6-    050405 104  0.2+  0.3-    050503 349  0.1+  0.0
050401 704  0.9+  0.4+    050405 104  0.5+  0.3-    050504 360  0.4+  0.4+
050401 704  0.1-  1.1-    050406 704  0.5-  0.3+    050504 360  0.2-  0.1+
050401 704  0.4+  0.4-    050406 704  0.8-  0.8+    050504 360  0.2-  0.6+
050401 704  0.8+  0.1-    050406 704  0.5-  1.7+    050507 213  0.1+  0.1+
050402 734  0.2-  0.4+    050406 704  0.1-  0.5+    050507 213  0.1+  0.1+
050402 734  0.7+  0.8-    050406 704  0.6-  0.1-    050507 213  0.1+  0.0
050402 734  0.1-  0.2-    050410 213  0.5+  0.4-    050510 699  0.3-  0.4-
050402 673  0.1+  0.4+    050410 213  0.1-  0.6-    050510 699  0.4+  1.0-
050402 673  0.4-  0.1-    050410 213  0.6-  0.3-    050510 699  0.8+  1.4-
050402 673  0.9+  0.6+    050411 213  0.3-  0.7-    050510 699  0.1+  0.6-
050402 673  0.0   0.5+    050413 372  0.7-  1.1-    050512 372  0.7-  1.6+
050403 J95  0.2-  0.2+    050413 D83  0.2+  1.5-    050513 673  0.2+  0.9+
050403 J95  0.4-  0.6+    050413 D83  1.0+  1.0-    050513 673  0.2+  0.9+
050403 J95  0.5-  0.5+    050413 D83  0.0   1.6-    050513 673  0.1+  0.9+
050403 461  0.6+  0.2+    050413 D83  0.2-  1.4-    050513 673  0.1+  0.6+
050403 461  0.1+  0.4+    050413 372  0.2-  1.6-    050514 213  0.1+  0.4+
050403 461  0.1+  0.5+    050413 213  0.3+  0.3+    050514 213  0.1+  0.4+
050403 461  0.0   0.2+    050414 213  0.4+  0.1+    050514 213  0.0   0.1-
050403 H06 (2.0+  2.2-)   050414 400  0.1+  0.1+    050515 360  0.1-  0.6+
050403 734  0.2-  0.2+    050414 400  0.2-  0.1-    050515 360  0.4+  0.2+
050403 734  0.7+  0.5+    050414 400  0.7-  1.1-    050515 372  1.7-  1.3+
050403 734  1.6+  0.0     050414 360  0.1+  0.0     050515 360  0.0   0.5+
050403 H06  1.2+  1.7-    050414 360  0.3+  0.3-    050527 048  0.6-  0.6-
050403 H06 (3.3-  3.1+)   050414 360  0.1-  0.2+    050527 048  0.7+  0.3-
050404 012  0.4-  0.2-    050414 372  0.7+  1.7-    050527 048  0.3+  1.1-
050404 012  1.2+  1.2+    050415 850  0.1+  0.1-    050527 048  0.4+  0.6-
050404 012  0.1+  0.2-    050415 850  0.1+  0.2-    050527 048  0.2-  0.4+
050404 118  0.0   0.8+    050415 850  0.1-  0.1-    050528 104  0.7+  0.4+
050404 118  0.3+  0.2-    050416 D74  0.0   0.5+    050528 104  0.2+  0.6+
050404 118  0.2-  0.4+    050416 D74  0.5+  0.4+    050528 104  0.1+  0.5+
050404 118  1.8+  0.4+    050416 D74  0.7+  0.1+    050528 104  0.2+  0.0
050404 012  0.1-  0.7-    050416 213  0.8-  0.5-    050528 130  0.1+  0.7-
050404 012  0.6+  0.4-    050416 213  0.1-  0.9-    050528 130  0.2-  0.3-
050404 651  0.1+  0.3-    050416 213  0.2-  0.9-    050528 048 (0.6-  3.2-)
050404 651  0.2-  0.4+    050417 232  0.1-  0.1+    050528 048 (0.1-  2.9-)
050404 651  0.1+  0.5+    050418 372  0.8-  0.3+    050528 048  1.0-  0.9-
050404 850  0.1+  0.1+    050427 213  0.5+  0.1-    050528 048  0.2-  0.4-
050404 850  0.0   1.0-    050427 213  0.6+  0.3-    050528 048  0.4+  0.3-
050404 850  0.5-  0.3-    050427 213  0.6+  0.0     050529 673  0.2-  1.0+
050404 704  0.1-  0.7-    050427 213  0.7+  0.0     050529 673  0.5+  0.6+
050404 850  0.4-  0.1+    050428 204  0.3-  0.2+    050529 673  0.2-  0.8+
050404 704  0.3-  0.1+    050428 204  0.0   0.2+    050529 673  0.1-  1.0+
050404 704  0.0   0.1+    050428 204  0.0   0.2-    050602 699  0.1+  0.5-
050404 704  0.2+  0.1-    050428 118  0.1-  0.7+    050602 699 (0.8+  2.5-)
050405 118  0.1+  0.8-    050428 118  0.0   0.6+    050602 699  0.6+  1.0-
050405 118  0.1+  0.2+    050429 360  0.3+  0.6+    050602 699  0.3-  0.3-
050405 118  0.2-  0.7+    050429 360  0.1-  0.1+    050604 360  0.1-  0.6+
050405 704  0.1+  0.3+    050429 360  0.1-  0.5+    050604 360  0.5-  0.6+
050405 704  0.7-  0.3+    050430 232 (1.4+  3.0-)   050604 360  0.2-  0.3+
050405 704  0.3+  1.4+    050430 232 (1.1+  4.4-)   050613 704  0.2+  0.7-
050405 704  0.3-  0.7-    050501 215  0.1-  0.3+    050613 704  0.2+  0.6-
050405 360 (0.7-  2.4+)   050501 215  0.1-  0.4+    050613 704  0.1+  0.1-
050405 360 (0.3-  2.4+)   050501 213  1.8-  1.1-    050613 704  0.5+  0.1+
050405 360 (0.6-  2.2+)   050501 213  1.4-  0.9-    050613 704  0.3-  0.0
050405 372  0.2-  0.1+    050501 213  1.1-  0.8-

     The "original" and "future" barycentric values of 1/a are -0.000028
and +0.000003 (+/- 0.000043) AU^-1, respectively.

Brian G. Marsden             (C) Copyright 2005 MPC           M.P.E.C. 2005-M21

Read MPEC 2005-M20 Read MPEC 2005-M22


Our Web policy. Index to the CBAT/MPC/ICQ pages.


Valid HTML 4.01!